Total_Precipitation_Accumulation
2.20 2.62 2.89 3.40 4.00 4.46 4.91 5.14 5.25 5.16 5.00 4.64 4.35 4.11 3.87 3.65 3.38 3.15 3.05 3.02 2.96 3.19 3.70 3.44 3.74 3.66 3.71 3.78 3.82 3.99 3.92 3.65 3.83 3.94 3.52 2.90 2.42 2.41 2.16 2.11 2.19 2.22 2.27
2.11 2.60 2.90 3.12 3.53 4.07 4.56 4.91 5.13 5.04 4.66 4.33 4.17 4.10 4.08 3.69 3.40 3.36 3.52 3.32 3.31 3.36 3.42 3.70 3.67 3.77 3.93 3.90 3.85 3.99 3.78 3.42 3.71 4.13 4.24 3.50 3.05 2.48 1.90 2.06 2.25 2.49 2.62
2.38 2.64 2.84 2.98 3.21 3.62 3.95 4.06 4.27 4.26 4.10 4.15 4.18 4.18 4.23 3.84 3.76 3.78 3.80 3.57 3.57 3.58 3.61 3.62 3.57 3.64 3.45 3.55 3.65 3.67 3.72 3.64 3.54 3.86 4.30 3.89 3.41 2.93 2.22 2.07 2.16 2.47 2.78
2.08 2.28 2.55 2.81 2.97 3.21 3.54 3.76 3.83 3.79 3.73 3.86 3.95 3.88 3.70 3.60 3.78 4.06 3.99 3.72 3.50 3.38 3.22 3.17 3.37 3.42 3.18 3.31 2.96 3.17 3.41 3.42 3.27 3.57 3.66 3.69 3.71 3.61 2.88 2.37 2.17 2.30 2.54
1.81 1.95 2.15 2.45 2.57 2.88 3.17 3.37 3.62 3.72 3.69 3.79 3.81 3.86 3.68 3.67 3.73 3.75 3.81 3.62 3.42 3.10 2.75 2.81 3.08 3.08 3.01 2.95 2.85 3.09 2.96 2.91 3.03 3.29 3.48 3.55 3.66 3.51 3.30 2.82 2.76 2.70 2.53
1.59 1.82 2.01 2.28 2.45 2.56 2.71 2.80 3.01 3.29 3.49 3.57 3.57 3.67 3.61 3.54 3.49 3.50 3.41 3.19 3.03 2.82 2.50 2.41 2.67 2.85 2.94 2.92 2.90 3.00 2.92 2.99 3.12 3.11 3.15 3.42 3.47 3.46 3.55 3.03 2.86 2.90 2.61
1.33 1.56 1.72 1.90 2.11 2.21 2.31 2.47 2.76 3.11 3.21 3.20 3.20 3.31 3.36 3.35 3.29 3.28 3.15 2.92 2.69 2.48 2.42 2.44 2.63 2.70 2.80 2.68 2.74 2.84 2.84 3.03 3.12 3.04 2.95 3.08 3.14 3.27 3.54 3.45 3.07 2.92 2.72
1.12 1.26 1.52 1.84 2.00 1.97 2.03 2.21 2.51 2.79 2.84 2.79 2.94 3.21 3.28 3.31 3.23 3.29 2.97 2.72 2.51 2.47 2.57 2.56 2.45 2.42 2.52 2.40 2.72 2.66 2.69 2.94 3.04 2.76 3.05 3.08 3.08 3.38 3.63 3.73 3.84 3.43 3.08
1.14 1.21 1.29 1.50 1.61 1.66 1.74 1.92 2.35 2.64 2.74 2.83 2.99 3.14 3.25 3.19 3.14 3.04 2.76 2.51 2.54 2.49 2.65 2.62 2.55 2.43 2.50 2.63 2.94 2.86 2.79 3.02 3.00 3.01 3.26 3.22 3.13 3.28 3.42 3.67 3.96 4.08 3.62
0.96 1.03 1.06 1.16 1.26 1.45 1.72 1.92 2.11 2.45 2.57 2.68 2.88 2.91 3.14 3.03 2.86 2.81 2.59 2.36 2.27 2.37 2.62 2.77 2.66 2.51 2.54 2.72 2.94 2.91 3.05 3.24 3.29 3.39 3.50 3.46 3.26 3.36 3.41 3.47 3.73 4.10 4.02
0.87 0.89 1.01 1.13 1.23 1.39 1.63 1.78 1.83 2.06 2.26 2.42 2.64 2.65 2.66 2.73 2.77 2.60 2.34 2.30 2.36 2.48 2.55 2.67 2.65 2.56 2.60 2.75 2.82 2.79 3.12 3.28 3.33 3.34 3.37 3.32 3.49 3.50 3.35 3.47 3.65 3.94 4.02
0.96 0.99 1.13 1.25 1.34 1.52 1.58 1.61 1.68 1.89 2.11 2.35 2.60 2.76 2.76 2.71 2.70 2.55 2.36 2.37 2.46 2.48 2.43 2.51 2.51 2.39 2.46 2.68 2.68 2.74 3.10 3.33 3.16 3.17 3.21 2.95 3.07 3.19 3.02 3.16 3.23 3.36 3.62
1.03 1.11 1.21 1.28 1.30 1.42 1.54 1.56 1.57 1.77 2.02 2.27 2.59 2.82 2.92 2.89 2.79 2.53 2.33 2.22 2.17 2.22 2.25 2.27 2.29 2.38 2.58 2.66 2.63 2.68 2.72 2.77 2.83 3.06 3.20 3.00 3.00 2.87 2.87 2.91 2.87 2.94 3.05
1.06 1.14 1.17 1.31 1.31 1.34 1.47 1.51 1.58 1.66 1.93 2.19 2.41 2.62 2.58 2.49 2.46 2.32 2.17 2.04 2.01 2.05 2.12 2.21 2.31 2.41 2.50 2.52 2.61 2.68 2.57 2.56 2.63 2.80 2.91 2.90 2.81 2.69 2.81 2.74 2.75 2.83 3.01
0.95 0.98 1.02 1.12 1.17 1.30 1.45 1.38 1.40 1.47 1.64 1.85 1.96 2.14 2.18 2.17 2.13 2.18 2.22 2.17 2.17 2.10 2.20 2.28 2.31 2.31 2.26 2.16 2.27 2.37 2.43 2.60 2.54 2.45 2.40 2.38 2.41 2.37 2.44 2.29 2.52 2.79 2.94
0.72 0.69 0.87 0.97 0.96 1.00 1.13 1.12 1.12 1.28 1.45 1.55 1.68 1.94 2.09 2.13 2.12 2.18 2.34 2.38 2.31 2.26 2.28 2.25 2.30 2.23 1.90 2.11 2.20 2.22 2.33 2.50 2.50 2.35 2.20 2.07 2.02 1.94 1.99 1.96 2.08 2.40 2.61
0.73 0.69 0.81 0.99 1.06 1.03 1.01 1.12 1.21 1.36 1.47 1.59 1.73 1.96 2.08 2.18 2.24 2.26 2.40 2.35 2.36 2.41 2.34 2.24 2.22 2.21 2.28 2.37 2.16 2.01 1.98 2.12 2.19 2.16 2.11 1.81 1.70 1.89 1.86 1.93 1.92 1.94 2.10
0.82 0.82 0.86 0.85 0.90 0.95 1.00 1.13 1.40 1.66 1.74 1.87 2.03 2.15 2.28 2.24 2.22 2.22 2.27 2.39 2.50 2.55 2.54 2.45 2.35 2.34 2.31 2.29 2.06 2.05 1.95 1.97 1.99 2.01 2.03 1.98 1.90 1.95 2.09 2.07 1.99 1.86 1.84
0.82 0.90 0.95 0.92 0.97 1.01 1.04 1.22 1.41 1.70 1.90 1.96 2.07 2.23 2.34 2.38 2.37 2.37 2.37 2.50 2.63 2.60 2.54 2.46 2.49 2.46 2.47 2.52 2.29 2.28 2.10 2.11 2.12 2.16 2.18 2.14 2.04 2.19 2.12 2.02 2.00 1.95 1.95
0.90 0.93 0.98 1.09 1.26 1.31 1.31 1.42 1.53 1.67 1.84 1.92 2.04 2.23 2.46 2.51 2.52 2.68 2.79 2.77 2.75 2.63 2.63 2.63 2.60 2.60 2.61 2.83 2.62 2.45 2.26 2.27 2.28 2.41 2.41 2.45 2.29 2.27 2.19 2.03 2.05 2.04 2.09
1.01 0.97 1.05 1.20 1.44 1.58 1.61 1.68 1.81 1.91 1.91 1.96 2.10 2.29 2.48 2.58 2.65 2.85 2.94 2.94 2.89 2.89 2.84 2.76 2.79 2.76 2.72 2.87 2.62 2.41 2.25 2.32 2.49 2.51 2.43 2.47 2.49 2.28 2.30 2.27 2.18 2.20 2.21
1.13 1.12 1.20 1.39 1.61 1.82 1.78 1.84 1.91 1.92 1.94 1.92 2.07 2.21 2.37 2.38 2.47 2.78 2.88 3.00 3.03 2.98 2.89 2.86 2.72 2.72 2.67 2.56 2.40 2.29 2.25 2.35 2.51 2.60 2.55 2.51 2.48 2.25 2.18 2.05 2.04 2.14 2.03
1.18 1.22 1.27 1.49 1.75 1.95 1.99 2.04 1.95 2.01 2.04 2.07 2.18 2.31 2.40 2.44 2.54 2.67 2.72 2.83 2.90 2.85 2.73 2.74 2.69 2.62 2.63 2.61 2.35 2.11 2.06 2.11 2.14 2.30 2.49 2.42 2.33 2.12 1.92 1.88 1.87 1.79 1.68
1.09 1.18 1.30 1.42 1.57 1.78 1.98 2.10 2.12 2.13 2.14 2.20 2.25 2.33 2.46 2.44 2.51 2.63 2.75 2.86 2.93 3.01 2.92 2.77 2.63 2.61 2.56 2.45 2.27 2.09 1.99 2.09 2.19 2.27 2.35 2.24 2.13 1.94 1.79 1.72 1.64 1.60 1.69
1.08 1.15 1.29 1.39 1.49 1.59 1.72 1.80 1.92 2.02 2.08 2.17 2.24 2.25 2.28 2.36 2.47 2.54 2.66 2.64 2.71 2.75 2.73 2.62 2.59 2.55 2.46 2.31 2.22 2.02 1.91 2.03 2.22 2.29 2.28 2.14 2.08 1.96 1.85 1.78 1.74 1.75 1.80
1.19 1.21 1.28 1.33 1.40 1.52 1.71 1.78 1.86 1.99 2.13 2.23 2.24 2.20 2.15 2.21 2.25 2.32 2.34 2.37 2.25 2.25 2.18 2.17 2.16 2.09 1.99 1.88 1.75 1.71 1.72 1.84 2.04 2.03 2.07 2.19 2.18 2.12 2.03 1.93 1.83 1.81 1.79